Wind_Speed
13 14 14 13 13 13 12 12 12 11 12 12 12 11 12 13 13 12 12 12 14 15 16 15 12 9 8 8 8 8 7 7 7 6 7 7 8 8 6 6 5 3 4 6 7 5 4 3 3 4 5 3 1 2 3 4 5 4 5 5 5 5 8 11 9 6 8 12 13 12 10 8 8 8 9 6 3 4 6 6 8 7 7 8 9 10 7 5
13 14 14 13 13 12 12 12 11 11 11 12 11 10 10 12 12 12 11 11 13 14 15 14 11 7 7 8 9 9 8 8 8 7 8 9 9 8 6 6 6 6 6 6 7 5 3 3 2 3 7 6 5 5 2 1 1 2 4 3 3 4 6 7 6 4 7 10 10 9 8 6 5 2 6 7 3 3 7 4 6 9 8 7 7 9 8 7
13 13 14 14 13 13 12 12 11 10 11 11 11 10 9 10 12 12 10 10 12 13 14 13 10 6 6 7 8 8 9 9 8 8 9 10 11 9 8 8 7 6 5 5 6 4 4 3 4 7 7 4 3 3 1 1 1 1 2 1 0 2 4 4 3 3 3 5 5 5 5 4 3 2 6 9 4 3 7 5 8 10 8 7 6 10 12 9
13 13 14 14 13 13 12 12 11 10 11 11 11 10 9 9 11 11 10 9 10 12 12 12 9 7 6 6 6 8 10 10 10 10 9 11 12 11 10 10 8 6 6 7 7 6 6 3 2 5 4 4 6 5 4 3 3 2 2 2 3 3 2 2 2 2 1 1 2 1 1 1 3 3 3 6 4 3 6 6 8 9 8 9 8 12 12 10
13 13 13 14 14 13 12 12 11 10 10 11 10 10 9 8 9 10 9 7 9 10 11 11 10 8 7 7 7 8 10 10 10 9 9 11 13 13 11 11 8 7 8 9 10 9 9 6 6 7 9 10 10 9 8 6 5 4 5 4 4 4 2 2 4 5 5 5 4 4 3 3 4 3 2 4 5 4 6 7 7 8 10 10 10 12 12 12
13 13 13 14 14 14 13 12 11 10 10 10 10 9 9 7 8 9 8 6 7 9 9 10 10 9 8 8 8 8 9 10 9 9 9 10 14 12 9 8 7 7 9 10 11 10 9 8 10 13 14 15 15 15 14 12 11 10 12 12 11 10 9 10 11 10 9 7 8 8 7 6 6 6 5 7 8 7 8 8 9 11 13 13 13 13 14 14
14 13 13 14 14 14 13 12 11 10 10 11 10 9 9 7 7 8 7 5 6 7 8 9 9 8 8 8 8 8 9 9 9 9 8 9 14 12 8 7 7 9 11 13 13 12 10 10 14 19 21 21 21 21 21 21 22 20 21 21 20 20 21 22 21 18 15 13 12 11 10 9 8 8 8 9 10 10 11 12 14 16 17 17 16 15 15 14
14 14 14 14 14 14 14 13 11 11 10 11 10 9 9 8 7 6 7 4 4 6 6 7 8 6 6 6 7 8 9 8 9 8 6 8 13 13 10 9 11 15 14 14 15 14 14 16 20 24 25 23 23 23 25 27 28 27 26 26 25 25 27 27 26 25 23 19 17 16 15 14 13 12 13 15 15 16 18 19 19 20 18 17 15 14 13 12
15 14 14 14 14 14 14 13 12 11 11 11 11 9 9 8 7 6 6 4 2 4 5 5 6 6 5 5 5 7 8 8 8 6 5 8 12 13 13 12 14 16 15 14 16 16 16 20 24 25 24 22 21 22 24 27 28 28 28 27 26 27 27 26 27 28 27 24 23 22 21 21 21 20 20 20 20 19 20 19 18 17 15 14 13 11 10 9
16 15 14 14 15 15 15 14 12 11 11 11 11 10 9 9 8 6 5 4 2 3 5 5 5 4 3 3 4 5 7 7 6 4 6 9 11 13 13 13 14 15 14 14 16 17 18 20 23 24 23 22 21 22 23 25 25 25 25 26 26 26 25 26 27 27 25 24 23 23 22 22 22 21 20 19 18 18 17 16 14 13 12 11 10 8 8 8
16 15 14 15 15 16 15 14 13 12 11 12 12 10 9 9 9 7 4 4 2 2 4 5 4 3 2 3 3 4 5 4 4 4 6 9 11 12 13 13 14 13 13 14 16 19 19 20 22 22 22 21 21 21 22 23 24 24 22 22 24 24 24 25 25 23 21 20 20 20 19 18 18 18 17 15 15 14 13 12 10 9 9 8 7 7 7 8
17 16 15 15 15 16 16 15 14 12 12 12 12 11 10 9 9 8 5 3 2 2 4 5 4 3 2 3 3 3 3 3 5 5 7 10 11 13 13 12 14 14 13 15 16 17 19 20 20 19 18 17 17 18 19 20 22 23 21 19 20 22 23 23 22 20 18 15 15 17 15 14 14 15 14 13 11 11 11 9 8 8 7 6 6 7 7 8
18 16 15 15 15 16 16 16 15 13 12 12 12 12 11 10 9 9 7 3 2 1 3 5 5 3 2 1 1 3 3 4 6 4 7 11 12 14 13 12 16 17 13 14 16 17 18 17 16 16 14 11 13 15 17 18 19 20 19 17 18 19 20 20 19 17 16 14 13 13 12 10 10 10 11 10 9 9 9 8 8 8 7 6 7 7 8 8
18 17 16 15 15 16 16 16 15 14 13 13 13 13 12 11 10 9 8 5 1 1 3 4 5 4 3 1 1 3 3 4 6 4 7 13 15 13 11 13 16 15 15 16 16 16 15 14 14 15 13 12 13 15 17 17 17 18 17 17 16 17 18 16 15 14 15 15 13 11 10 8 8 8 9 9 9 9 10 9 9 8 7 6 7 8 8 9
19 18 16 15 15 15 16 16 16 15 14 13 13 14 13 12 10 9 8 6 3 1 2 5 6 4 4 3 2 4 4 5 5 3 7 13 17 12 8 13 14 12 15 17 15 14 13 13 13 13 14 14 13 13 14 14 14 15 15 15 15 14 15 15 14 12 13 14 12 11 9 8 8 8 9 10 9 10 10 10 9 7 7 7 8 9 9 10
20 19 17 16 15 15 16 16 16 16 15 14 14 15 15 13 11 9 9 8 4 1 3 6 7 6 5 4 4 6 7 7 5 4 8 12 14 13 11 13 15 13 15 15 13 13 12 11 11 11 12 13 14 14 12 11 11 11 12 13 12 12 13 15 15 13 12 11 10 10 9 8 9 8 8 10 10 10 10 10 8 7 8 7 9 10 11 12
21 19 18 16 16 16 16 16 16 16 15 14 15 16 16 14 11 9 9 9 6 2 3 5 6 7 6 5 5 6 8 8 6 6 9 11 11 14 14 14 15 14 14 12 9 10 11 10 11 12 11 10 12 12 11 10 9 9 10 12 12 11 12 13 15 14 11 9 8 9 8 7 8 8 7 8 10 10 9 8 7 6 7 7 9 11 12 14
23 20 18 17 16 16 16 16 16 16 16 15 16 17 16 14 12 11 9 8 6 3 3 5 5 7 8 7 7 7 8 8 7 5 7 10 12 14 15 14 12 11 10 9 8 9 12 12 11 11 10 9 8 8 9 10 10 8 8 9 11 11 11 12 13 13 12 9 7 7 8 6 7 9 7 7 8 8 8 9 8 7 8 8 9 12 14 16
24 21 19 17 16 16 16 17 16 16 17 17 17 16 16 15 14 12 9 7 7 5 4 4 4 7 8 9 9 10 10 10 9 5 4 8 12 14 15 13 11 9 9 9 10 12 14 13 11 9 8 7 7 7 8 9 8 6 5 8 10 11 12 13 12 12 11 10 6 6 8 8 9 10 8 6 6 6 7 8 8 9 10 10 12 14 15 16
24 22 20 18 17 17 17 17 16 17 18 18 17 16 16 16 15 12 9 8 8 6 5 4 4 6 7 8 9 10 11 12 12 8 6 9 13 15 14 14 13 11 9 10 12 13 13 12 10 8 6 6 6 8 9 8 5 4 5 8 10 11 12 12 12 10 8 6 5 7 9 10 11 9 7 6 5 4 6 6 8 10 11 12 15 16 16 17
24 23 21 19 18 18 18 17 16 18 20 19 17 16 15 15 14 12 10 10 8 6 6 6 6 5 7 9 9 9 10 10 13 13 12 12 13 14 13 15 14 10 10 12 13 12 10 10 9 8 7 6 6 8 10 9 7 6 7 8 8 9 9 9 10 7 4 6 7 8 10 10 11 9 5 6 6 6 7 7 8 10 10 12 16 17 17 17
24 23 21 20 19 19 18 18 18 19 20 19 16 14 14 14 13 11 10 10 8 6 7 6 6 6 7 9 10 9 9 9 12 15 15 12 11 12 13 15 14 12 12 13 13 12 10 9 9 6 3 4 7 9 11 13 10 5 5 8 6 8 8 8 8 4 3 7 9 8 9 9 8 7 6 7 7 7 9 9 10 11 10 11 14 16 17 16
23 23 22 21 20 20 19 19 20 20 20 18 14 13 13 13 13 12 11 11 9 7 7 6 6 6 6 9 11 10 10 11 12 15 16 14 11 10 11 14 14 13 12 13 15 14 12 9 10 9 4 3 8 12 13 17 15 9 5 6 4 6 7 7 6 3 3 7 8 6 5 6 5 6 7 8 8 8 9 9 10 12 12 11 13 14 15 15
23 23 23 22 22 21 20 21 21 20 19 17 14 14 13 13 15 15 13 12 10 8 8 8 5 4 6 7 9 10 11 15 15 14 15 14 12 11 11 12 12 12 12 14 15 14 14 12 12 13 8 5 9 12 13 15 16 13 11 8 4 5 8 6 5 4 5 6 7 6 4 3 3 5 7 8 8 8 9 9 10 11 12 12 13 13 14 13
24 24 24 23 23 22 22 22 21 20 18 16 16 14 13 15 18 16 14 12 11 9 8 7 5 6 8 5 6 8 10 16 19 15 13 12 11 11 11 12 11 11 14 15 13 12 13 13 12 11 9 8 10 14 14 15 16 14 13 11 8 6 7 6 3 4 4 5 7 8 6 3 2 4 6 6 6 7 8 8 9 10 11 12 13 13 14 13
23 24 24 24 24 23 23 23 22 20 17 16 17 15 15 19 19 16 14 13 11 10 7 6 7 9 7 5 7 8 9 16 19 16 14 12 11 9 9 12 11 12 15 14 13 11 10 12 12 10 6 6 10 15 17 17 16 13 12 11 10 9 8 6 4 3 2 3 6 7 7 5 4 4 4 4 4 6 7 7 9 10 9 9 12 13 13 13
20 22 25 25 24 24 24 24 23 20 17 17 18 17 18 20 18 15 14 13 12 10 7 7 8 9 8 8 8 5 9 17 18 16 13 11 11 9 9 11 11 11 12 12 15 13 10 11 10 8 5 6 10 13 14 17 17 13 11 10 10 13 11 4 2 1 1 2 3 4 6 6 5 3 3 5 5 7 8 8 10 11 9 8 11 13 12 12
18 18 23 26 24 25 26 25 23 20 18 19 20 20 20 20 18 17 14 13 12 9 7 8 10 10 9 8 7 8 14 17 16 15 13 9 11 10 10 11 9 8 8 11 15 13 11 11 9 7 6 8 12 10 9 14 17 12 11 13 13 14 12 7 4 2 2 1 1 2 3 4 5 4 4 5 6 7 9 10 10 11 10 8 11 12 11 11
18 15 21 26 24 25 27 26 23 21 20 21 23 22 20 19 18 18 15 13 12 10 9 9 10 11 8 5 8 14 16 16 15 15 13 10 10 11 13 11 8 7 7 10 14 16 15 14 12 10 7 6 12 13 9 11 13 10 11 13 13 15 14 11 8 6 5 3 3 1 1 0 3 5 4 5 7 8 10 11 10 10 9 8 10 11 10 10
18 15 19 23 24 25 28 27 23 22 22 24 24 22 20 20 20 19 16 14 13 11 10 9 9 10 7 5 9 14 15 15 13 13 14 14 12 12 14 12 8 6 6 8 12 16 18 14 12 10 7 3 8 13 9 6 8 9 10 9 11 14 14 11 9 7 6 3 3 2 2 2 2 4 4 5 7 9 10 12 11 10 9 10 10 11 10 10
18 17 19 21 23 24 26 27 25 24 24 25 24 22 20 21 21 19 16 15 14 11 11 11 8 7 7 7 8 11 14 14 12 11 13 15 14 13 13 12 9 6 6 8 9 13 14 10 9 10 7 4 3 10 8 7 7 7 8 10 11 12 12 12 10 7 5 3 4 5 4 2 1 3 4 5 7 8 10 12 12 10 10 11 11 11 11 10
19 19 20 21 22 22 24 26 26 25 25 25 24 22 22 22 20 18 16 15 15 14 16 16 11 6 6 8 8 9 11 12 11 11 12 14 13 12 12 11 9 7 7 8 8 8 9 7 8 10 8 5 3 7 9 8 7 6 11 15 12 9 11 10 7 7 7 5 6 7 6 5 4 4 4 5 6 7 9 11 12 11 10 11 11 11 11 10
20 22 22 23 24 23 23 26 27 26 26 26 25 23 23 21 17 17 16 16 17 18 19 20 18 14 9 7 8 9 10 10 10 10 12 14 13 11 11 12 10 8 8 11 9 8 9 8 8 9 8 8 6 8 9 6 6 7 14 16 11 6 8 8 4 5 7 7 6 6 7 8 8 6 5 4 5 7 8 10 11 11 11 11 11 11 11 11
18 21 23 24 25 25 24 26 28 27 27 26 25 25 24 18 16 17 17 17 20 22 23 22 22 21 17 9 7 10 11 11 12 13 13 14 13 14 16 15 13 11 12 12 9 9 10 10 13 12 11 12 6 7 9 7 9 10 12 13 11 6 5 6 4 3 6 6 5 6 7 8 7 6 7 7 6 6 6 8 9 10 11 10 10 10 11 11
15 16 18 21 25 26 26 26 28 28 28 27 26 25 22 16 16 19 19 20 24 26 24 22 21 20 19 12 7 9 10 10 12 12 13 13 12 15 18 17 15 12 13 11 7 9 8 9 17 14 9 14 9 4 7 7 9 9 9 9 11 7 3 5 4 2 5 5 4 6 6 6 7 7 7 8 9 7 5 6 7 8 9 9 8 9 10 11
13 14 15 16 20 24 26 27 28 28 28 27 26 23 19 16 18 22 24 26 27 24 21 20 19 16 14 10 9 8 8 9 10 9 10 11 9 11 14 15 14 12 11 8 5 7 4 4 14 14 11 13 9 8 8 8 8 7 8 7 8 8 3 5 5 4 5 5 4 4 4 7 9 9 9 10 11 9 6 7 8 8 8 7 6 6 8 9
11 12 13 13 15 19 24 27 28 28 27 27 25 21 18 18 21 25 28 28 26 23 22 21 20 19 16 12 11 10 10 11 12 10 9 11 11 10 10 11 12 10 9 7 6 5 5 3 6 12 15 14 11 11 9 8 6 5 6 4 6 9 5 3 5 6 6 6 3 2 2 5 8 9 8 10 12 11 9 9 9 9 8 6 4 3 5 7
11 11 11 12 13 14 18 24 27 27 26 25 23 20 19 20 22 27 30 30 28 26 26 24 23 24 23 20 18 17 16 15 15 14 13 14 15 13 10 10 12 12 10 11 9 7 8 4 2 9 13 13 15 15 9 9 6 4 4 4 6 9 8 4 4 6 6 7 5 1 1 1 4 5 5 8 12 12 10 10 10 10 9 7 3 1 2 5
10 10 10 10 12 12 14 18 23 26 25 23 22 21 21 22 24 29 32 33 32 30 30 28 27 27 27 26 24 23 23 21 21 20 18 19 18 15 13 13 15 14 13 14 13 10 11 7 4 8 11 13 19 18 8 8 8 8 6 6 9 8 8 6 5 6 5 6 7 3 2 3 1 1 2 5 9 10 9 9 8 8 10 9 5 1 1 2
10 11 9 9 10 11 12 14 18 23 23 22 23 23 24 25 26 30 34 35 35 34 33 30 29 29 27 27 27 28 28 27 26 24 22 22 21 18 16 17 18 18 17 18 17 15 15 11 7 8 8 11 17 16 8 8 10 11 8 7 11 10 9 9 6 7 5 5 7 5 5 5 3 3 3 3 4 7 8 7 6 6 10 11 7 2 2 3
10 11 9 8 9 10 11 12 15 19 21 22 24 25 26 28 29 31 35 37 36 36 34 31 30 30 29 27 27 29 31 30 30 29 26 26 25 22 20 19 20 21 21 21 18 16 16 14 11 9 7 10 11 15 15 14 11 11 9 7 12 13 12 10 8 11 11 9 7 7 8 6 4 4 5 5 4 5 6 6 5 5 7 9 8 5 3 3
9 10 10 9 10 10 11 12 13 16 20 23 25 27 28 30 31 32 35 38 38 37 36 33 31 31 32 30 28 29 31 31 31 32 30 29 27 25 22 21 23 24 23 22 19 17 17 17 15 12 9 10 13 17 19 16 11 10 10 12 14 13 12 11 10 13 14 13 9 8 9 8 7 6 4 4 5 5 4 6 6 3 4 6 6 7 6 4
10 11 11 11 11 11 11 12 12 15 18 21 24 27 29 31 32 33 35 38 39 39 38 36 34 33 33 33 32 31 31 31 31 32 33 31 29 27 24 25 27 27 26 25 23 20 19 19 18 15 12 13 16 16 14 12 11 10 11 15 17 14 11 10 10 13 13 11 10 8 8 8 8 7 5 4 4 4 4 5 4 3 3 5 4 6 7 5
11 12 12 13 12 13 13 12 12 13 15 17 20 23 26 29 33 33 35 38 40 41 41 39 37 36 36 36 35 34 33 33 33 34 34 33 31 29 28 29 29 27 27 27 26 24 22 21 21 18 16 16 16 16 14 12 13 14 14 17 20 17 14 10 9 11 11 10 11 10 9 9 9 8 8 7 5 5 6 6 5 4 6 7 6 5 6 6
13 13 14 14 14 14 14 13 13 13 14 15 18 21 23 27 32 32 33 37 41 43 44 43 40 39 39 38 36 34 35 35 34 34 34 34 33 32 32 33 30 28 29 31 29 27 25 26 25 22 21 20 19 20 20 16 16 19 21 22 23 22 18 14 9 8 9 11 12 11 11 10 9 9 12 13 12 10 8 7 6 5 4 7 8 7 6 4
14 14 14 15 15 15 15 14 14 14 13 14 17 20 22 25 29 32 33 37 41 44 45 46 45 43 40 37 35 34 35 35 34 34 34 34 34 34 34 35 32 28 29 32 32 30 29 30 30 27 24 23 22 23 24 21 20 22 23 24 24 23 19 15 11 9 10 11 12 11 11 10 9 10 13 14 14 13 11 8 7 7 6 7 10 9 8 6
15 15 15 15 16 16 15 15 15 15 15 15 16 19 21 23 28 32 34 36 39 43 45 47 47 46 43 39 36 36 36 37 37 35 35 34 34 34 35 35 33 30 28 31 34 34 32 32 32 29 26 25 24 25 25 24 23 23 22 20 21 22 19 14 12 11 12 11 10 9 10 12 12 13 14 15 15 14 13 11 10 10 9 10 11 11 10 8
15 16 15 16 17 16 16 16 16 17 16 16 17 19 21 24 27 30 32 34 36 40 43 46 46 46 46 42 39 38 38 38 39 37 35 33 33 33 34 35 36 34 32 31 33 35 35 34 33 31 28 25 25 26 26 26 25 24 23 21 21 22 18 14 13 14 14 13 11 9 12 15 16 16 17 18 17 16 14 14 14 13 11 10 11 11 11 10
15 15 15 17 17 16 16 16 16 17 17 17 18 19 22 24 27 29 31 33 35 37 40 44 44 44 45 44 43 41 39 39 39 39 36 34 33 32 33 34 34 34 33 32 33 35 36 36 35 34 31 29 27 27 28 28 27 26 24 22 22 22 21 19 18 17 17 17 15 13 14 17 16 16 17 18 18 18 17 15 15 15 13 11 11 12 12 12
15 15 15 17 17 16 17 17 17 18 18 18 19 20 22 24 28 29 30 32 35 37 38 41 43 43 43 44 43 42 42 41 42 42 40 38 36 34 33 33 32 32 32 31 30 31 33 34 35 34 32 32 31 30 29 28 27 27 25 23 22 22 21 21 20 20 20 20 19 17 16 16 15 14 15 16 17 18 17 17 17 17 16 15 15 16 15 13
15 15 16 17 17 17 18 18 18 19 19 19 20 22 23 25 26 29 30 32 35 37 37 39 41 43 43 44 43 41 41 42 43 44 43 41 39 38 36 34 34 33 32 30 26 25 28 32 33 34 35 36 34 31 29 27 27 28 28 27 26 24 23 21 20 20 21 21 22 20 17 16 16 16 16 16 17 18 19 19 20 21 20 20 19 18 18 17
15 16 16 18 18 18 19 19 19 20 21 20 21 23 25 26 26 27 30 32 34 36 37 37 38 41 43 44 44 42 41 40 40 41 41 40 39 39 39 38 36 34 33 30 27 25 25 27 28 30 33 33 30 26 25 26 28 29 29 28 28 27 27 25 22 21 21 22 24 22 18 16 17 18 19 18 17 18 20 21 22 23 23 23 22 20 20 20
Wind_Direction
290 291 292 292 294 295 296 296 298 302 308 318 320 322 327 334 339 342 350 356 359 2 3 4 8 19 36 46 44 43 43 44 47 55 61 64 63 57 51 55 69 101 130 114 101 91 70 37 9 345 310 289 273 259 234 240 250 270 289 277 267 278 294 309 334 333 306 305 294 294 296 301 313 282 255 268 311 249 222 230 231 208 181 177 183 187 182 186
287 289 289 290 291 293 293 293 296 299 304 314 319 319 326 336 341 345 352 1 6 8 8 8 14 30 47 49 44 46 51 54 57 64 68 68 66 65 70 82 102 124 137 118 97 84 58 16 329 274 279 269 237 237 233 252 275 325 322 300 269 289 313 322 340 335 306 295 286 292 288 295 332 285 196 164 131 197 190 202 205 180 170 172 182 185 177 170
283 286 287 288 288 290 291 291 293 295 299 310 316 316 323 335 343 348 354 6 15 17 16 16 23 38 45 40 38 51 63 64 66 72 79 84 83 85 91 92 96 110 121 95 72 66 55 8 267 229 236 237 202 205 172 89 80 42 350 352 118 11 357 341 335 337 301 276 272 291 286 294 357 104 175 180 180 188 179 171 161 159 160 155 153 167 171 164
279 282 285 285 286 287 288 288 289 291 294 304 312 312 316 331 344 350 357 12 25 28 26 25 30 37 38 35 39 57 69 68 67 70 79 90 88 85 85 82 80 89 89 73 72 75 68 70 216 200 175 113 101 113 122 106 85 88 67 51 77 65 21 314 334 12 31 14 45 21 299 45 66 86 191 196 193 179 158 137 139 145 143 143 145 155 162 155
276 278 281 283 284 284 285 284 285 287 289 297 308 308 309 324 342 352 360 17 37 40 35 32 33 39 46 52 57 61 67 66 63 67 73 83 83 80 82 81 73 74 75 74 83 80 71 87 108 111 108 98 96 98 101 96 92 98 88 81 88 88 43 13 30 42 49 40 63 110 141 131 101 106 152 142 142 157 139 122 130 136 136 143 148 148 148 143
273 274 276 280 281 282 282 281 280 282 282 289 301 304 302 312 335 353 1 20 48 52 45 39 37 46 58 66 68 64 66 66 63 65 67 80 85 81 88 93 83 82 82 80 83 79 74 82 92 98 97 94 94 92 92 91 91 93 92 91 88 84 76 69 69 69 71 71 81 102 117 114 106 120 128 114 118 133 128 119 126 129 128 132 135 136 138 138
271 271 272 275 278 279 278 277 276 276 277 282 292 298 297 301 322 350 4 21 57 67 58 46 44 53 63 68 68 61 59 60 62 64 66 87 90 85 93 102 96 92 91 90 85 79 80 89 96 99 96 94 91 88 93 97 95 95 93 90 85 82 80 77 78 80 82 80 78 84 91 93 100 117 120 113 116 119 113 111 117 120 120 124 130 134 138 139
269 268 269 271 273 275 275 273 272 271 272 274 283 292 291 292 306 339 4 20 63 82 74 53 47 53 60 63 59 55 52 52 60 69 82 98 94 89 92 99 96 91 90 89 86 84 91 97 101 100 97 95 90 85 90 95 96 97 93 89 85 82 79 79 80 84 85 84 83 82 85 91 99 106 107 108 111 108 105 108 113 116 121 128 133 137 140 142
267 266 266 267 269 271 271 270 268 267 267 269 275 285 286 286 291 319 0 19 63 93 93 68 53 54 61 63 56 54 53 50 56 72 99 104 98 92 94 101 98 91 90 90 92 97 100 99 100 99 95 96 95 92 91 92 93 94 94 91 88 84 82 83 84 84 84 84 86 87 90 95 99 100 100 101 103 103 104 107 111 116 124 130 132 136 140 143
266 265 265 265 265 266 267 266 264 262 263 265 268 277 282 281 282 296 343 18 54 107 107 96 67 52 63 81 70 56 53 51 53 73 97 99 100 96 99 105 95 90 96 100 103 107 105 102 101 99 97 98 99 97 95 95 94 92 92 92 91 90 88 86 83 82 83 84 86 88 90 93 96 98 99 99 101 102 104 106 111 119 126 129 133 139 144 143
265 264 264 264 263 263 264 263 260 258 258 260 262 269 276 276 277 282 314 11 44 136 119 118 93 57 70 92 83 65 57 57 57 70 89 93 100 102 106 108 95 90 103 111 112 112 109 106 103 100 101 103 100 96 94 96 95 91 89 93 96 95 90 85 82 81 82 86 90 91 91 94 97 98 100 101 102 104 108 112 118 125 128 132 139 142 140 138
264 263 263 263 263 261 261 260 258 255 253 254 257 262 269 272 273 274 287 349 36 159 141 136 124 86 87 91 86 76 67 65 57 65 88 92 102 107 105 109 108 107 113 116 112 111 109 104 101 100 103 109 106 98 94 93 91 90 93 94 92 90 87 84 83 81 80 81 86 90 93 95 98 100 104 105 106 109 111 117 125 124 126 134 139 142 140 140
260 260 261 261 262 261 259 258 256 254 250 250 253 257 262 267 269 270 274 307 25 169 166 153 145 127 127 132 85 85 85 74 60 58 90 99 111 116 113 113 118 120 121 119 112 108 104 98 97 100 103 111 109 102 98 96 95 95 97 93 86 82 80 80 81 81 78 72 68 75 84 88 92 97 103 108 111 115 115 119 122 117 121 130 134 144 147 145
257 257 258 259 260 259 257 256 255 252 249 246 248 252 255 260 264 267 266 277 328 183 184 167 163 157 153 177 79 92 102 82 67 59 94 107 109 106 112 121 122 125 125 122 115 107 99 96 100 104 107 103 100 104 104 102 99 95 91 86 83 82 81 82 80 77 75 70 60 59 67 73 81 88 92 101 105 109 114 114 111 110 119 132 143 151 148 143
255 255 254 255 256 257 255 253 252 251 249 244 244 248 250 253 259 263 262 265 277 204 183 175 177 178 157 163 150 113 101 88 85 84 95 103 103 100 122 134 131 133 130 126 117 103 96 103 109 106 107 106 106 112 109 103 100 95 90 83 79 76 80 84 79 73 71 68 61 57 59 64 72 80 86 92 99 103 106 104 104 116 127 138 151 149 143 142
251 250 250 251 252 254 253 251 250 249 248 244 242 245 246 248 254 261 263 260 263 238 182 187 188 185 168 164 158 128 112 108 114 122 100 96 107 118 135 139 137 135 128 123 111 99 97 102 103 98 101 107 112 115 110 108 106 102 98 87 76 64 67 78 80 79 76 68 63 65 63 65 72 76 82 88 95 101 100 100 108 127 132 140 144 141 143 144
247 245 246 247 249 250 251 250 248 247 247 243 240 242 244 246 252 259 262 259 262 251 196 201 196 187 176 165 155 131 120 123 126 128 115 113 128 133 130 129 129 123 117 114 104 99 104 101 98 99 96 94 100 102 98 95 90 94 101 95 86 67 53 63 74 82 90 80 69 76 70 63 72 80 86 87 89 99 108 112 125 131 127 137 138 135 139 140
245 242 241 243 245 247 248 248 246 246 245 242 240 241 241 243 246 249 256 260 263 254 220 217 202 190 180 165 159 142 130 131 129 130 126 129 144 141 126 119 116 111 107 104 92 96 107 107 104 98 84 76 78 81 85 80 69 77 99 93 87 78 55 50 63 83 107 102 78 83 83 68 62 66 72 79 84 99 119 128 136 131 126 143 144 135 136 140
245 242 238 239 242 245 246 245 245 245 245 242 240 239 238 238 239 241 250 256 250 235 222 230 213 194 186 174 168 158 147 139 128 126 142 146 150 139 123 119 114 102 92 88 87 93 101 103 97 85 75 72 61 52 72 83 70 65 84 74 68 68 60 55 61 75 103 109 90 88 88 70 55 50 49 66 84 99 114 129 134 127 130 145 146 140 140 142
246 243 237 236 240 243 244 244 243 244 244 242 238 237 235 235 235 236 243 248 244 229 210 219 214 198 194 190 183 174 163 149 138 146 185 180 156 137 123 122 115 97 85 88 92 92 95 100 95 88 82 74 58 41 50 77 87 71 72 72 62 54 53 56 60 62 76 91 81 82 81 61 50 45 40 68 104 117 110 120 121 117 124 138 144 146 146 143
246 243 237 235 237 241 242 243 241 241 242 242 239 237 235 236 235 230 234 242 243 227 209 206 209 206 200 204 203 196 185 164 151 159 184 189 161 141 131 128 120 100 87 90 93 88 91 99 94 93 86 71 62 47 42 54 80 87 72 66 51 32 34 45 54 57 51 48 45 56 66 58 48 42 45 78 108 125 119 118 115 114 121 133 143 148 147 144
244 241 236 234 236 239 241 242 240 239 242 242 241 240 238 240 239 231 233 240 239 226 221 209 209 215 205 205 207 207 210 188 160 162 174 176 160 146 138 134 124 104 91 87 84 77 77 80 70 71 76 55 50 47 36 25 36 72 78 70 40 358 12 35 44 67 65 34 25 31 53 56 41 25 39 69 86 106 113 114 116 118 123 133 142 144 145 145
242 239 236 234 234 237 239 241 241 241 243 244 243 241 237 240 241 235 232 239 239 226 223 216 209 216 212 211 207 204 215 204 176 169 170 162 159 158 144 134 118 101 98 90 79 72 70 70 61 53 35 50 54 47 31 13 14 22 23 60 57 351 6 24 25 36 38 21 7 5 33 39 26 13 26 52 68 90 102 107 114 119 126 136 140 140 142 143
242 238 235 233 233 235 236 240 242 242 244 244 242 237 231 233 237 232 225 232 236 226 224 224 214 214 217 220 214 205 208 204 191 178 170 163 163 169 160 137 112 99 106 100 92 88 87 88 75 54 33 35 40 30 17 360 0 8 4 8 14 348 351 358 9 8 3 1 351 349 356 359 31 29 23 38 57 80 94 103 112 119 127 136 140 142 145 147
243 238 235 232 232 234 235 239 242 242 242 241 238 235 225 226 231 226 218 225 232 230 227 221 206 217 223 222 220 217 208 202 197 180 167 171 170 174 169 143 113 103 112 109 110 110 105 107 94 65 37 19 16 12 4 349 347 359 6 4 358 344 331 324 327 332 335 342 339 345 357 356 2 8 14 32 53 73 89 105 114 118 129 138 141 144 148 149
248 240 236 232 230 233 235 237 241 241 240 239 238 234 223 225 229 224 214 218 227 229 222 207 203 216 226 219 217 229 219 202 196 177 163 176 186 197 187 153 127 120 122 121 123 119 116 115 99 81 58 5 6 9 360 350 353 2 5 2 354 334 309 280 277 308 328 343 332 335 352 359 338 340 17 52 72 84 93 109 113 114 129 146 145 143 145 144
254 243 236 232 228 232 235 235 238 240 236 237 239 233 225 225 228 225 217 215 220 222 210 198 202 205 211 215 213 222 207 192 185 172 159 172 191 210 200 161 136 133 136 135 130 122 122 120 104 89 64 0 7 14 360 353 360 7 7 7 355 333 317 277 226 292 341 338 325 333 346 355 358 12 63 75 88 100 106 114 114 112 124 149 147 141 141 141
260 247 237 234 227 229 235 234 235 237 233 234 236 231 226 225 226 225 220 216 216 214 202 195 201 205 215 223 196 175 183 175 168 168 158 165 188 195 184 157 133 135 144 144 136 127 125 120 100 80 52 9 4 4 359 358 353 354 10 13 2 353 2 32 57 57 54 160 217 354 357 354 13 39 71 75 89 104 114 119 117 115 122 144 146 137 139 142
261 249 238 237 230 227 234 233 231 232 230 231 234 231 227 223 223 222 217 216 211 201 199 199 201 206 218 230 189 180 181 168 165 173 164 164 180 183 180 167 146 142 148 149 137 123 119 112 99 92 81 26 356 344 346 358 346 341 4 10 2 0 13 31 45 55 59 106 155 72 57 46 23 36 46 66 95 108 116 119 117 119 126 139 141 135 139 145
258 248 240 241 235 228 232 233 230 228 228 231 232 231 228 222 220 218 214 213 206 188 188 195 195 195 194 194 187 185 184 176 176 180 169 164 170 180 188 180 162 153 149 146 134 128 128 120 115 118 111 72 348 338 329 337 347 348 358 5 358 355 6 27 47 60 59 87 136 118 137 164 41 42 50 68 94 108 114 114 114 123 129 132 133 134 142 147
254 246 241 243 241 232 230 233 230 226 227 231 232 230 228 223 219 215 210 206 201 181 175 182 187 199 193 179 180 187 190 186 181 181 171 164 169 185 193 183 168 165 163 155 143 144 146 134 134 138 123 126 332 330 300 278 317 346 2 359 344 346 6 25 40 57 62 84 134 131 140 166 117 73 76 81 93 109 119 116 116 124 129 130 133 136 142 144
254 247 242 242 243 237 230 230 231 228 227 230 231 229 228 225 217 213 207 202 197 177 171 175 173 190 212 195 183 186 197 195 180 178 178 171 177 194 200 188 169 153 156 166 161 157 160 155 150 139 120 142 227 293 280 268 292 338 13 2 342 343 5 16 34 54 63 88 121 130 138 144 135 115 96 85 87 104 121 122 121 125 127 127 131 136 140 141
255 250 245 240 241 239 231 229 229 229 227 228 229 228 227 224 213 208 205 202 196 180 180 187 179 177 191 203 205 195 196 200 186 183 192 185 179 187 193 185 168 151 155 169 170 156 155 162 165 155 145 158 200 263 272 282 312 1 18 3 345 346 2 10 28 57 67 79 100 126 140 135 131 133 127 116 97 99 115 126 128 128 124 119 123 132 138 141
250 250 247 239 237 236 232 228 228 228 227 227 227 227 226 219 204 202 199 197 196 187 189 196 189 182 176 175 218 216 200 199 193 189 197 197 183 177 182 176 166 169 172 173 162 149 155 163 173 181 167 152 164 274 285 309 335 359 8 352 338 336 350 3 10 79 77 69 93 137 154 147 140 136 136 140 125 106 109 123 133 132 124 118 120 129 135 140
242 245 247 239 234 233 230 229 228 227 226 225 226 226 224 213 200 198 192 193 200 196 192 195 194 187 176 171 202 222 216 204 194 190 190 194 190 185 189 180 172 182 184 178 162 153 163 169 175 183 155 135 146 240 264 292 313 329 340 336 335 337 14 16 359 66 63 52 98 134 155 162 155 138 134 140 131 124 126 129 135 132 124 120 121 128 134 139
241 242 245 242 236 232 229 228 227 226 225 224 224 224 218 206 198 194 193 198 204 198 186 187 188 177 171 186 199 214 229 206 198 209 194 190 199 198 201 194 186 191 186 186 189 164 155 163 178 184 153 142 171 201 212 258 280 291 306 314 325 329 16 35 350 342 18 33 83 114 136 160 166 149 133 131 129 136 147 136 131 127 120 118 119 129 139 144
243 244 245 243 238 234 229 227 226 225 225 223 223 221 212 203 197 195 196 200 202 193 181 179 179 170 167 186 198 213 226 202 201 225 217 213 219 205 207 213 205 200 190 203 226 202 189 172 188 193 168 162 186 191 204 257 272 286 298 318 335 318 314 16 354 344 14 31 47 92 108 141 158 153 141 131 128 137 145 130 118 115 116 119 118 128 143 151
244 243 245 244 239 235 230 226 225 226 226 224 223 218 207 201 199 197 197 199 197 191 186 182 179 179 178 180 189 207 212 204 211 223 222 230 228 206 203 218 214 213 219 222 222 221 217 202 224 213 188 177 181 181 212 257 257 274 300 337 334 303 288 306 340 334 359 15 9 42 57 66 151 163 163 141 130 136 138 119 105 106 111 115 113 105 141 160
249 241 241 246 242 235 231 227 225 226 227 225 222 215 205 200 199 198 198 201 198 191 190 189 183 185 187 182 186 202 208 207 215 218 216 224 224 211 205 207 208 214 229 231 220 217 221 220 237 213 195 190 179 170 194 238 244 261 272 300 304 297 291 288 301 313 331 357 348 326 342 346 319 201 186 159 144 137 125 106 98 106 111 109 106 83 274 198
256 248 241 246 248 241 234 230 226 225 225 223 219 213 204 199 200 200 200 201 199 192 192 194 188 186 189 185 187 202 211 209 209 209 212 217 218 215 210 206 207 210 222 230 224 219 221 220 221 204 201 208 178 156 170 201 216 240 246 274 283 287 290 278 290 312 313 337 333 301 306 335 333 314 298 244 183 141 121 115 120 123 116 110 108 119 272 262
259 258 254 252 252 248 239 232 227 225 223 220 217 213 206 200 199 201 202 202 200 196 196 198 194 190 191 188 189 202 213 213 209 206 208 213 212 213 214 211 209 209 215 224 222 221 222 215 212 211 227 240 194 166 181 189 197 225 227 238 257 270 283 285 299 306 301 310 317 298 296 299 279 277 286 270 226 160 135 148 161 141 122 120 120 134 203 247
263 265 266 262 257 255 246 237 231 226 222 220 217 215 209 202 200 203 204 202 200 199 199 201 202 200 197 194 194 203 212 215 212 208 209 212 210 212 217 216 212 208 208 214 217 220 222 216 219 224 227 242 226 197 190 188 198 223 221 223 238 252 266 274 282 289 295 298 294 290 292 285 270 266 279 280 239 196 168 174 180 156 125 137 141 147 173 209
271 272 271 268 263 257 249 242 238 233 229 225 223 222 216 206 202 204 204 203 200 200 201 202 206 208 204 201 201 204 211 215 213 211 211 214 213 214 220 221 215 208 204 208 211 216 220 220 226 230 223 229 234 225 215 205 208 220 223 226 232 238 250 265 271 275 289 297 289 284 291 295 291 288 303 307 253 228 234 218 201 199 175 174 179 171 173 182
273 273 269 267 263 257 252 247 244 240 235 229 225 226 221 210 204 204 205 204 201 201 203 203 207 212 212 209 206 205 211 216 216 215 215 216 216 216 221 225 222 213 206 208 211 213 218 222 225 224 221 224 230 236 244 235 216 223 232 229 230 238 250 262 268 269 278 293 295 290 294 302 297 295 306 303 282 266 261 255 252 239 202 190 202 210 195 180
272 272 270 267 263 258 257 253 248 246 242 235 228 223 220 214 208 207 208 206 203 204 206 205 208 213 216 218 217 212 212 215 218 220 219 219 218 218 221 225 225 218 210 211 215 214 216 222 225 223 223 228 228 228 237 237 222 223 229 227 230 241 249 248 249 263 272 285 295 295 298 302 294 296 305 300 295 290 270 256 266 270 232 195 196 216 233 219
272 271 270 269 265 260 257 254 250 248 243 238 234 226 221 217 212 209 209 208 207 208 209 209 211 214 217 220 223 221 217 216 217 220 220 219 218 218 221 223 223 220 212 212 216 216 216 222 225 225 226 229 228 223 228 236 234 229 228 228 232 243 249 245 244 262 274 283 293 293 292 290 283 289 294 289 288 289 278 263 261 270 267 228 214 227 240 238
272 273 270 267 266 262 258 254 251 248 242 236 234 229 223 217 215 213 212 212 212 213 213 214 215 217 217 218 223 226 224 218 216 218 219 221 219 218 221 224 224 224 219 218 221 220 219 222 224 226 227 227 226 224 226 233 239 241 242 242 243 248 250 245 242 252 262 271 280 278 270 265 261 267 272 271 274 279 279 277 269 263 257 243 242 253 252 243
268 271 270 267 266 265 261 256 252 250 246 240 236 232 226 220 219 218 216 216 218 217 218 220 220 220 220 219 221 226 227 223 221 219 218 222 223 220 221 226 228 230 230 229 228 225 222 224 225 227 228 228 227 226 226 230 236 244 252 258 260 260 260 258 254 254 254 255 257 256 255 255 253 254 260 266 271 275 277 279 273 263 255 248 250 257 260 259
266 267 267 265 266 265 262 258 254 250 248 245 241 235 229 224 223 222 218 217 220 220 221 224 226 226 226 223 222 225 229 230 230 227 223 223 225 224 224 227 230 233 234 233 229 224 222 224 226 227 229 231 231 229 228 232 237 243 249 256 261 265 266 268 267 262 253 247 245 246 253 258 257 253 256 264 271 275 277 277 271 265 264 263 256 251 255 258
267 266 265 264 264 264 263 260 256 253 249 247 246 241 233 228 226 224 220 219 221 222 222 225 228 231 231 229 227 226 228 231 234 234 231 229 230 232 232 232 232 230 229 231 229 223 222 225 227 229 231 234 236 237 234 233 236 241 245 249 253 255 259 264 267 264 257 251 248 248 254 263 265 260 256 259 265 270 271 270 265 261 261 259 250 244 243 245
267 267 266 266 266 266 264 261 259 256 253 248 246 244 239 233 230 227 223 221 222 223 222 223 227 231 234 233 231 230 229 230 233 235 235 233 234 237 238 237 235 230 228 230 230 225 225 229 230 232 234 235 237 240 241 239 241 245 248 250 252 251 251 256 261 263 264 260 256 255 257 262 265 263 260 259 265 272 274 272 268 264 262 259 253 247 241 238
269 271 271 271 272 271 267 264 261 259 256 252 248 246 243 241 237 231 226 225 225 225 224 223 224 229 233 235 235 235 233 231 232 236 237 236 237 238 238 237 236 234 231 228 223 223 229 235 236 235 237 237 235 236 241 243 245 248 251 252 254 254 255 257 258 260 264 263 257 254 254 257 260 262 262 260 265 274 278 275 268 264 265 266 266 264 258 252
Height
5814 5813 5813 5812 5812 5811 5810 5810 5809 5809 5808 5807 5806 5805 5804 5802 5801 5800 5798 5797 5796 5794 5792 5791 5789 5788 5787 5786 5785 5784 5783 5783 5783 5782 5782 5781 5780 5780 5780 5779 5779 5779 5779 5778 5778 5778 5778 5778 5778 5778 5778 5778 5777 5778 5779 5779 5779 5778 5778 5778 5778 5778 5778 5777 5777 5778 5779 5778 5777 5776 5775 5774 5773 5773 5773 5773 5774 5775 5775 5775 5775 5775 5775 5775 5777 5778 5780 5781
5812 5812 5811 5811 5810 5810 5809 5808 5808 5808 5807 5806 5805 5804 5803 5802 5800 5799 5798 5796 5795 5794 5792 5791 5789 5788 5787 5786 5785 5785 5784 5784 5783 5783 5782 5781 5780 5780 5780 5779 5779 5779 5779 5778 5778 5778 5778 5778 5778 5778 5778 5778 5778 5779 5779 5778 5778 5778 5778 5777 5777 5778 5778 5778 5777 5777 5778 5777 5775 5774 5773 5772 5771 5771 5771 5772 5773 5774 5775 5775 5774 5775 5775 5775 5777 5778 5780 5781
5810 5810 5810 5809 5809 5808 5808 5807 5807 5806 5806 5805 5804 5803 5802 5801 5800 5799 5797 5796 5795 5794 5793 5791 5790 5789 5788 5787 5786 5785 5785 5784 5784 5784 5783 5782 5781 5780 5780 5780 5780 5780 5780 5779 5779 5779 5779 5778 5778 5779 5779 5779 5778 5779 5778 5778 5778 5778 5777 5777 5777 5777 5778 5777 5777 5777 5777 5776 5774 5772 5771 5771 5770 5770 5771 5772 5773 5774 5774 5774 5774 5774 5774 5776 5777 5779 5780 5781
5809 5808 5808 5808 5807 5807 5807 5806 5805 5805 5805 5804 5803 5802 5802 5801 5799 5798 5797 5796 5795 5794 5793 5792 5791 5790 5789 5788 5787 5786 5785 5785 5785 5785 5784 5782 5781 5781 5781 5780 5781 5781 5781 5780 5780 5780 5780 5779 5779 5779 5780 5779 5778 5777 5777 5778 5777 5777 5777 5777 5777 5777 5777 5776 5776 5776 5776 5774 5772 5771 5771 5771 5770 5770 5770 5771 5772 5773 5773 5773 5773 5773 5774 5776 5778 5779 5781 5782
5807 5807 5806 5806 5806 5806 5805 5805 5804 5804 5803 5803 5802 5801 5801 5800 5799 5798 5797 5796 5795 5794 5793 5793 5791 5790 5789 5789 5788 5787 5786 5786 5786 5785 5784 5783 5781 5782 5782 5782 5783 5782 5781 5781 5781 5781 5781 5781 5780 5780 5780 5779 5778 5778 5778 5777 5777 5777 5777 5777 5777 5776 5776 5775 5775 5774 5773 5772 5772 5772 5771 5771 5771 5771 5770 5770 5771 5772 5772 5772 5773 5774 5775 5777 5779 5780 5782 5783
5805 5805 5805 5805 5804 5804 5804 5803 5803 5802 5802 5802 5801 5801 5800 5799 5798 5797 5797 5796 5795 5794 5794 5793 5792 5791 5790 5789 5789 5788 5787 5787 5787 5786 5785 5784 5782 5782 5783 5784 5784 5783 5782 5782 5782 5782 5782 5783 5782 5781 5780 5780 5779 5778 5778 5778 5777 5777 5777 5777 5777 5776 5776 5775 5774 5773 5772 5772 5772 5772 5772 5771 5771 5771 5770 5771 5772 5773 5773 5773 5774 5775 5776 5778 5780 5781 5783 5783
5803 5803 5803 5803 5803 5803 5802 5802 5801 5801 5801 5801 5800 5800 5799 5798 5798 5797 5796 5795 5795 5794 5794 5793 5793 5792 5791 5790 5790 5789 5789 5788 5787 5786 5786 5785 5783 5783 5784 5784 5784 5783 5782 5783 5783 5783 5784 5784 5783 5782 5781 5782 5782 5780 5779 5778 5778 5779 5779 5778 5777 5777 5776 5774 5773 5773 5773 5773 5772 5772 5771 5771 5772 5772 5772 5772 5773 5774 5773 5774 5775 5776 5777 5779 5781 5783 5784 5785
5801 5801 5801 5801 5801 5801 5801 5801 5800 5800 5799 5799 5799 5799 5798 5797 5797 5796 5796 5795 5794 5794 5793 5793 5793 5792 5792 5791 5790 5790 5789 5789 5788 5787 5787 5786 5784 5784 5785 5784 5784 5783 5784 5784 5784 5785 5786 5785 5784 5783 5783 5784 5784 5784 5783 5781 5779 5779 5779 5779 5778 5778 5776 5776 5775 5775 5775 5774 5774 5773 5772 5772 5773 5774 5774 5774 5774 5775 5775 5775 5777 5778 5779 5781 5782 5784 5784 5785
5799 5799 5799 5799 5799 5799 5799 5799 5799 5798 5798 5798 5798 5797 5797 5796 5796 5796 5795 5795 5794 5793 5793 5793 5793 5793 5792 5791 5791 5790 5790 5789 5789 5788 5788 5787 5785 5784 5785 5785 5785 5784 5785 5786 5786 5786 5787 5787 5786 5785 5785 5786 5786 5785 5785 5783 5782 5781 5781 5780 5780 5779 5779 5779 5778 5777 5777 5777 5777 5776 5776 5776 5776 5776 5776 5776 5776 5777 5777 5778 5779 5780 5781 5782 5783 5784 5785 5785
5797 5797 5797 5797 5797 5797 5797 5797 5797 5797 5797 5797 5796 5796 5796 5795 5795 5795 5795 5794 5794 5793 5793 5793 5793 5792 5792 5792 5791 5790 5790 5790 5790 5789 5788 5787 5785 5785 5785 5786 5786 5786 5787 5787 5788 5788 5789 5789 5788 5786 5786 5787 5787 5787 5786 5785 5784 5784 5783 5783 5782 5781 5781 5781 5779 5779 5779 5780 5780 5780 5780 5780 5779 5778 5778 5779 5779 5779 5779 5780 5781 5782 5782 5783 5784 5784 5785 5785
5795 5795 5795 5795 5795 5796 5796 5796 5795 5795 5795 5795 5795 5795 5795 5794 5794 5794 5794 5794 5793 5793 5792 5792 5792 5792 5792 5792 5791 5791 5790 5790 5790 5790 5788 5787 5786 5786 5787 5787 5787 5788 5789 5789 5790 5790 5790 5790 5789 5788 5788 5788 5789 5788 5788 5787 5785 5785 5786 5786 5785 5784 5783 5781 5781 5782 5783 5783 5783 5782 5783 5783 5782 5781 5780 5781 5781 5781 5781 5782 5782 5783 5783 5783 5784 5784 5785 5785
5793 5793 5793 5793 5794 5794 5794 5794 5794 5794 5794 5794 5794 5793 5793 5793 5793 5793 5793 5793 5793 5792 5792 5791 5791 5791 5791 5792 5792 5791 5791 5791 5790 5790 5789 5787 5787 5787 5788 5788 5788 5789 5791 5791 5792 5791 5791 5790 5790 5790 5791 5791 5790 5790 5789 5788 5787 5786 5787 5788 5787 5785 5783 5782 5783 5785 5786 5786 5786 5784 5784 5785 5784 5783 5782 5782 5783 5782 5782 5783 5783 5783 5783 5784 5784 5784 5785 5786
5791 5791 5791 5791 5792 5792 5792 5792 5792 5792 5792 5792 5792 5792 5792 5792 5792 5792 5792 5793 5792 5792 5791 5791 5791 5791 5791 5791 5791 5791 5791 5791 5790 5791 5789 5788 5788 5788 5789 5790 5790 5790 5792 5793 5793 5792 5791 5790 5792 5792 5793 5792 5792 5791 5790 5790 5789 5789 5789 5790 5788 5786 5785 5785 5785 5786 5787 5787 5787 5786 5785 5786 5785 5785 5784 5784 5784 5784 5784 5784 5783 5784 5784 5784 5784 5785 5786 5786
5789 5789 5789 5789 5790 5790 5790 5790 5790 5790 5790 5790 5790 5790 5790 5790 5790 5791 5791 5792 5792 5791 5791 5791 5790 5790 5790 5791 5791 5791 5791 5791 5790 5792 5790 5788 5788 5789 5791 5792 5792 5792 5792 5793 5792 5791 5790 5791 5793 5793 5794 5793 5793 5792 5792 5792 5791 5790 5790 5790 5789 5788 5787 5786 5787 5787 5787 5787 5787 5787 5787 5787 5786 5786 5786 5785 5785 5785 5785 5785 5784 5784 5785 5785 5785 5786 5786 5787
5787 5787 5787 5787 5788 5788 5788 5788 5788 5788 5788 5789 5789 5789 5789 5789 5789 5790 5790 5791 5791 5791 5790 5790 5790 5790 5790 5790 5790 5791 5791 5791 5791 5792 5791 5789 5788 5790 5793 5793 5793 5794 5793 5793 5792 5791 5790 5791 5793 5794 5795 5794 5793 5793 5793 5793 5792 5791 5791 5790 5790 5790 5789 5788 5787 5788 5788 5788 5788 5788 5788 5788 5788 5787 5787 5787 5787 5787 5786 5786 5786 5786 5786 5786 5787 5787 5787 5788
5784 5785 5785 5785 5785 5786 5786 5786 5787 5787 5787 5787 5787 5787 5787 5787 5788 5789 5789 5790 5790 5790 5790 5789 5789 5789 5789 5789 5790 5790 5791 5792 5792 5793 5792 5790 5790 5792 5794 5794 5794 5795 5794 5794 5793 5791 5791 5792 5792 5794 5795 5795 5795 5794 5794 5794 5793 5793 5792 5791 5791 5791 5791 5789 5789 5789 5789 5789 5790 5789 5790 5790 5789 5789 5789 5789 5788 5788 5788 5787 5787 5788 5787 5787 5787 5787 5788 5789
5782 5782 5782 5783 5783 5783 5784 5784 5784 5784 5785 5785 5785 5785 5785 5786 5787 5788 5788 5789 5789 5790 5789 5789 5788 5789 5789 5789 5790 5790 5791 5792 5793 5794 5793 5792 5793 5794 5795 5795 5795 5795 5795 5794 5793 5792 5792 5793 5793 5794 5794 5794 5795 5794 5794 5794 5794 5794 5793 5792 5791 5792 5792 5791 5790 5790 5791 5791 5791 5791 5791 5791 5791 5790 5790 5790 5790 5789 5789 5789 5789 5789 5788 5788 5788 5788 5789 5790
5779 5780 5780 5780 5781 5781 5782 5782 5782 5782 5783 5783 5783 5783 5784 5785 5785 5786 5787 5788 5788 5789 5789 5788 5788 5788 5788 5788 5789 5789 5790 5791 5792 5793 5793 5793 5795 5795 5794 5794 5795 5795 5795 5795 5794 5794 5793 5794 5795 5794 5794 5794 5794 5794 5794 5794 5795 5795 5794 5793 5792 5792 5792 5792 5790 5791 5792 5793 5793 5792 5791 5791 5791 5790 5790 5791 5791 5791 5791 5791 5791 5790 5789 5789 5789 5789 5790 5791
5777 5777 5777 5778 5778 5779 5780 5780 5780 5781 5781 5781 5781 5781 5782 5782 5783 5784 5785 5786 5787 5788 5788 5788 5787 5788 5788 5788 5788 5788 5789 5790 5791 5793 5794 5794 5795 5794 5793 5793 5794 5795 5795 5795 5795 5794 5794 5794 5795 5795 5795 5795 5794 5794 5794 5794 5795 5796 5795 5794 5793 5792 5792 5792 5791 5791 5792 5793 5794 5792 5792 5792 5791 5790 5791 5791 5791 5792 5792 5791 5791 5790 5790 5790 5790 5790 5791 5791
5774 5775 5775 5775 5776 5777 5777 5778 5778 5779 5778 5778 5778 5779 5780 5780 5781 5783 5784 5785 5786 5787 5787 5787 5787 5787 5788 5788 5788 5788 5787 5788 5789 5791 5794 5795 5795 5794 5793 5793 5794 5795 5795 5795 5795 5795 5795 5795 5796 5796 5796 5796 5795 5794 5794 5794 5795 5795 5794 5793 5793 5793 5792 5791 5791 5791 5791 5793 5794 5793 5791 5791 5791 5791 5792 5792 5792 5793 5792 5792 5791 5790 5791 5791 5791 5791 5792 5792
5771 5772 5773 5773 5773 5774 5775 5775 5776 5776 5775 5775 5776 5777 5778 5779 5780 5782 5783 5783 5784 5785 5786 5786 5786 5787 5787 5787 5788 5788 5788 5787 5788 5790 5793 5795 5795 5793 5793 5792 5793 5794 5795 5795 5795 5796 5797 5797 5797 5797 5797 5797 5796 5796 5795 5795 5794 5794 5793 5793 5793 5793 5792 5791 5790 5791 5792 5792 5793 5792 5791 5790 5791 5793 5794 5793 5794 5794 5793 5792 5790 5790 5791 5791 5791 5792 5793 5793
5768 5769 5770 5770 5771 5772 5773 5773 5773 5773 5773 5774 5775 5777 5777 5778 5779 5781 5782 5782 5783 5784 5785 5785 5786 5786 5786 5786 5787 5788 5789 5788 5788 5789 5792 5794 5794 5793 5792 5792 5793 5794 5794 5795 5795 5796 5798 5798 5798 5798 5798 5798 5797 5797 5796 5795 5795 5795 5793 5793 5792 5792 5792 5790 5790 5791 5792 5792 5792 5792 5791 5790 5791 5793 5794 5794 5794 5794 5793 5792 5791 5790 5791 5792 5792 5792 5793 5793
5765 5766 5767 5768 5768 5769 5770 5771 5770 5771 5772 5773 5775 5776 5776 5777 5779 5780 5781 5782 5782 5784 5784 5785 5785 5785 5785 5785 5785 5787 5789 5789 5789 5789 5791 5792 5793 5793 5793 5792 5793 5794 5795 5795 5796 5797 5798 5799 5799 5799 5799 5799 5798 5797 5796 5795 5796 5796 5794 5793 5792 5792 5792 5791 5791 5791 5790 5791 5791 5792 5791 5791 5792 5793 5794 5793 5794 5794 5792 5792 5792 5791 5792 5792 5793 5793 5794 5794
5762 5763 5764 5765 5766 5766 5768 5768 5768 5769 5771 5772 5773 5774 5775 5776 5777 5778 5779 5780 5781 5782 5783 5784 5784 5784 5784 5784 5784 5785 5787 5789 5789 5789 5790 5791 5792 5793 5793 5792 5793 5793 5794 5795 5796 5798 5798 5799 5800 5800 5800 5799 5798 5797 5796 5796 5797 5798 5796 5795 5794 5793 5793 5793 5793 5792 5790 5790 5791 5791 5791 5791 5792 5792 5792 5792 5792 5792 5791 5791 5792 5792 5793 5793 5793 5793 5794 5795
5759 5760 5761 5762 5763 5764 5765 5765 5766 5768 5769 5771 5771 5772 5774 5774 5773 5775 5777 5779 5780 5781 5782 5783 5784 5783 5783 5783 5784 5784 5786 5787 5788 5788 5790 5791 5792 5793 5793 5792 5792 5794 5795 5796 5797 5799 5799 5799 5800 5800 5800 5799 5798 5797 5796 5796 5797 5798 5797 5796 5795 5795 5794 5793 5794 5793 5792 5790 5790 5790 5790 5791 5791 5791 5792 5792 5791 5791 5791 5792 5792 5792 5793 5793 5794 5794 5795 5796
5755 5757 5758 5759 5760 5761 5762 5763 5763 5765 5768 5769 5769 5770 5772 5771 5771 5773 5775 5777 5778 5779 5781 5782 5783 5782 5782 5782 5783 5783 5784 5786 5787 5787 5789 5790 5791 5793 5793 5792 5792 5794 5795 5796 5797 5798 5799 5799 5800 5800 5800 5800 5799 5798 5797 5797 5798 5798 5797 5795 5795 5795 5795 5794 5794 5794 5793 5792 5791 5790 5790 5790 5790 5791 5791 5791 5791 5791 5792 5792 5792 5792 5793 5794 5794 5794 5795 5796
5752 5754 5755 5756 5757 5758 5759 5760 5761 5763 5766 5766 5767 5768 5768 5768 5770 5772 5774 5776 5777 5778 5780 5781 5781 5781 5781 5781 5781 5782 5782 5784 5786 5786 5787 5789 5791 5792 5793 5793 5793 5793 5794 5795 5796 5797 5798 5799 5799 5800 5800 5799 5799 5797 5797 5798 5797 5797 5797 5795 5795 5795 5794 5793 5794 5794 5793 5793 5792 5792 5791 5790 5790 5790 5791 5791 5792 5792 5792 5792 5792 5792 5793 5795 5795 5795 5795 5796
5749 5751 5752 5752 5754 5756 5756 5757 5759 5761 5763 5764 5763 5764 5765 5767 5769 5771 5773 5775 5776 5777 5778 5779 5780 5780 5780 5780 5780 5781 5782 5783 5785 5786 5787 5789 5790 5792 5793 5793 5793 5793 5794 5795 5795 5796 5797 5798 5799 5800 5799 5799 5798 5797 5798 5799 5797 5797 5797 5796 5796 5795 5793 5793 5793 5794 5794 5793 5793 5793 5792 5791 5791 5791 5791 5792 5792 5792 5793 5793 5793 5793 5794 5795 5795 5795 5795 5796
5747 5749 5749 5749 5751 5753 5753 5754 5757 5759 5760 5760 5760 5761 5763 5766 5767 5769 5771 5773 5774 5775 5777 5778 5779 5779 5779 5780 5780 5781 5782 5783 5784 5785 5786 5788 5790 5791 5792 5792 5792 5793 5794 5795 5795 5796 5797 5798 5798 5798 5798 5798 5798 5798 5799 5799 5798 5799 5798 5797 5797 5796 5795 5794 5794 5794 5794 5794 5794 5793 5793 5792 5792 5791 5791 5792 5792 5793 5793 5793 5793 5793 5794 5796 5795 5795 5796 5797
5744 5746 5746 5746 5748 5750 5750 5752 5754 5756 5757 5757 5757 5760 5762 5764 5765 5767 5770 5771 5772 5774 5776 5777 5778 5778 5779 5780 5779 5780 5781 5781 5782 5784 5785 5786 5788 5790 5790 5791 5792 5793 5794 5795 5797 5797 5797 5797 5797 5798 5798 5798 5799 5799 5800 5800 5800 5800 5799 5798 5798 5797 5796 5795 5794 5794 5794 5794 5794 5794 5794 5793 5792 5792 5792 5792 5793 5793 5793 5793 5793 5794 5795 5796 5796 5796 5796 5797
5742 5744 5744 5744 5745 5747 5748 5749 5751 5752 5753 5754 5756 5758 5760 5761 5763 5766 5768 5770 5771 5773 5775 5776 5777 5777 5778 5779 5779 5780 5780 5780 5782 5783 5784 5786 5787 5788 5789 5791 5792 5793 5794 5795 5797 5797 5797 5797 5797 5798 5798 5798 5799 5799 5800 5800 5800 5800 5799 5798 5798 5798 5796 5795 5795 5795 5794 5794 5794 5794 5794 5794 5793 5793 5793 5793 5793 5794 5794 5794 5794 5795 5796 5796 5796 5796 5797 5797
5740 5740 5741 5741 5742 5744 5746 5746 5748 5749 5751 5752 5754 5756 5757 5759 5762 5765 5767 5768 5770 5771 5772 5772 5774 5775 5776 5777 5778 5779 5779 5780 5781 5783 5784 5785 5787 5788 5789 5790 5791 5792 5794 5795 5796 5796 5797 5797 5797 5798 5798 5799 5799 5799 5799 5800 5801 5800 5800 5799 5798 5797 5796 5795 5795 5795 5795 5794 5795 5795 5795 5794 5794 5795 5795 5795 5795 5795 5795 5795 5795 5796 5797 5797 5797 5797 5797 5797
5737 5737 5737 5739 5739 5740 5742 5743 5744 5746 5748 5750 5751 5753 5754 5757 5761 5764 5765 5767 5768 5768 5768 5767 5768 5770 5773 5775 5776 5777 5778 5779 5780 5782 5783 5784 5786 5787 5788 5790 5791 5792 5793 5794 5795 5795 5795 5796 5797 5797 5798 5799 5799 5798 5799 5799 5800 5800 5799 5799 5798 5798 5797 5796 5796 5796 5796 5796 5796 5796 5796 5795 5795 5795 5795 5796 5796 5796 5796 5796 5797 5797 5797 5797 5798 5798 5798 5798
5733 5733 5734 5735 5736 5737 5739 5740 5741 5743 5745 5747 5749 5750 5752 5757 5761 5762 5763 5764 5765 5764 5764 5764 5765 5767 5769 5773 5775 5776 5777 5779 5779 5780 5782 5783 5784 5785 5787 5788 5789 5791 5792 5793 5794 5795 5795 5795 5795 5796 5797 5798 5799 5798 5798 5798 5799 5799 5799 5799 5799 5798 5797 5797 5797 5797 5796 5796 5796 5796 5796 5796 5796 5796 5796 5796 5796 5796 5797 5797 5798 5798 5798 5798 5798 5798 5798 5798
5731 5730 5730 5731 5732 5734 5736 5737 5738 5740 5742 5744 5746 5748 5751 5756 5759 5760 5761 5760 5759 5760 5762 5763 5765 5767 5768 5771 5773 5774 5776 5778 5779 5780 5781 5782 5784 5785 5786 5787 5788 5790 5791 5792 5793 5794 5794 5794 5794 5795 5797 5798 5799 5798 5797 5798 5798 5798 5799 5800 5799 5798 5797 5797 5797 5797 5796 5796 5796 5796 5797 5797 5797 5797 5797 5796 5796 5797 5797 5798 5799 5799 5798 5798 5799 5799 5798 5798
5729 5728 5728 5729 5730 5731 5733 5734 5736 5738 5739 5741 5743 5746 5750 5754 5756 5757 5757 5756 5757 5760 5763 5764 5765 5766 5768 5770 5772 5774 5775 5776 5777 5779 5780 5781 5783 5785 5786 5787 5788 5789 5790 5791 5792 5792 5793 5794 5794 5795 5796 5798 5799 5798 5798 5798 5798 5799 5799 5799 5799 5798 5798 5797 5797 5796 5796 5796 5796 5797 5797 5797 5797 5797 5797 5797 5797 5797 5798 5798 5799 5799 5799 5798 5799 5799 5799 5799
5726 5726 5726 5727 5728 5728 5730 5731 5733 5735 5737 5739 5741 5745 5748 5750 5752 5753 5754 5755 5757 5760 5762 5763 5763 5764 5766 5768 5770 5772 5773 5774 5776 5777 5778 5780 5781 5783 5785 5786 5787 5788 5789 5789 5790 5791 5792 5793 5794 5794 5795 5796 5797 5798 5798 5798 5798 5799 5799 5799 5799 5798 5798 5797 5797 5796 5796 5796 5796 5796 5796 5796 5797 5797 5798 5798 5797 5797 5798 5798 5799 5799 5799 5798 5799 5799 5799 5799
5724 5725 5725 5725 5726 5726 5727 5729 5730 5732 5734 5736 5739 5742 5744 5747 5748 5750 5751 5753 5755 5758 5759 5760 5761 5761 5761 5763 5767 5769 5770 5772 5773 5775 5776 5777 5778 5781 5783 5785 5786 5786 5787 5787 5788 5790 5791 5792 5793 5793 5794 5795 5796 5797 5798 5797 5797 5798 5798 5798 5798 5798 5797 5797 5796 5796 5796 5796 5796 5796 5796 5796 5796 5796 5797 5797 5797 5797 5797 5797 5797 5798 5799 5798 5798 5799 5799 5799
5722 5723 5723 5723 5723 5724 5725 5726 5728 5729 5732 5734 5736 5738 5741 5743 5745 5746 5748 5749 5751 5754 5756 5756 5757 5758 5758 5759 5763 5766 5767 5769 5770 5772 5774 5775 5776 5779 5781 5782 5783 5784 5784 5784 5786 5788 5789 5790 5791 5792 5792 5793 5794 5796 5797 5797 5797 5797 5797 5797 5797 5797 5796 5796 5796 5796 5796 5796 5796 5796 5796 5795 5795 5795 5795 5796 5797 5797 5796 5795 5796 5798 5799 5798 5798 5799 5799 5800
5721 5721 5722 5722 5722 5722 5723 5724 5725 5727 5729 5731 5733 5734 5736 5739 5741 5743 5744 5746 5748 5751 5752 5752 5753 5755 5756 5756 5760 5763 5765 5766 5767 5769 5771 5772 5774 5777 5779 5780 5780 5781 5782 5782 5783 5785 5787 5789 5790 5791 5791 5792 5793 5794 5795 5795 5795 5795 5795 5796 5796 5796 5796 5796 5795 5795 5795 5796 5796 5795 5796 5796 5795 5794 5794 5795 5795 5796 5796 5795 5796 5798 5798 5798 5799 5799 5800 5800
5719 5719 5720 5721 5721 5721 5721 5722 5723 5724 5726 5727 5729 5730 5732 5734 5737 5739 5740 5743 5746 5748 5750 5751 5751 5753 5754 5755 5756 5759 5761 5763 5764 5765 5767 5769 5772 5774 5776 5777 5778 5779 5780 5781 5782 5783 5784 5787 5789 5790 5791 5792 5791 5791 5791 5791 5792 5793 5794 5794 5795 5795 5795 5795 5795 5794 5794 5795 5795 5795 5795 5795 5794 5794 5793 5793 5794 5795 5796 5796 5796 5797 5798 5798 5799 5800 5800 5800
5718 5718 5718 5719 5719 5719 5720 5720 5721 5721 5722 5724 5725 5726 5728 5731 5733 5735 5737 5740 5743 5746 5748 5749 5749 5750 5751 5752 5753 5755 5758 5761 5763 5763 5764 5766 5769 5771 5773 5775 5775 5776 5778 5779 5780 5781 5782 5784 5786 5788 5790 5791 5790 5788 5788 5789 5790 5791 5792 5792 5793 5793 5793 5794 5794 5793 5793 5794 5795 5794 5794 5794 5794 5793 5793 5793 5793 5794 5795 5796 5796 5796 5797 5798 5799 5800 5801 5800
5716 5716 5717 5717 5717 5718 5718 5719 5719 5720 5720 5722 5723 5724 5726 5728 5730 5731 5733 5736 5739 5742 5744 5745 5746 5747 5748 5749 5750 5753 5755 5758 5760 5762 5763 5764 5767 5769 5770 5772 5772 5773 5775 5777 5777 5778 5780 5782 5784 5786 5788 5789 5788 5786 5786 5787 5788 5789 5790 5791 5791 5792 5792 5793 5793 5793 5793 5794 5794 5794 5794 5793 5793 5793 5793 5794 5794 5794 5794 5795 5795 5795 5796 5798 5799 5800 5801 5800
5715 5714 5714 5715 5715 5716 5716 5717 5718 5718 5719 5720 5722 5723 5725 5726 5727 5728 5729 5732 5736 5737 5739 5741 5742 5743 5744 5746 5747 5750 5752 5755 5757 5759 5761 5762 5764 5766 5767 5768 5769 5770 5772 5774 5775 5776 5779 5780 5782 5784 5786 5787 5787 5786 5785 5786 5786 5787 5788 5789 5789 5790 5791 5792 5792 5792 5793 5793 5793 5794 5794 5794 5793 5792 5792 5793 5793 5794 5794 5794 5793 5794 5796 5797 5798 5799 5800 5800
5713 5712 5712 5712 5713 5714 5714 5715 5716 5717 5718 5719 5720 5721 5722 5723 5724 5726 5728 5730 5732 5733 5734 5736 5737 5738 5740 5743 5746 5748 5749 5752 5754 5755 5757 5759 5761 5763 5764 5764 5766 5768 5770 5772 5773 5775 5777 5778 5780 5782 5783 5785 5786 5785 5784 5784 5785 5785 5785 5786 5788 5789 5790 5791 5791 5791 5792 5793 5793 5792 5793 5793 5792 5791 5791 5791 5791 5792 5793 5793 5793 5794 5795 5796 5797 5798 5799 5799
5710 5710 5710 5711 5711 5711 5712 5713 5714 5714 5715 5717 5717 5718 5720 5721 5722 5723 5725 5726 5727 5729 5731 5732 5732 5734 5738 5742 5745 5746 5747 5749 5751 5751 5752 5754 5757 5759 5760 5761 5764 5766 5768 5770 5771 5773 5775 5775 5777 5780 5780 5781 5783 5783 5783 5783 5783 5783 5783 5784 5786 5787 5788 5789 5790 5790 5791 5791 5792 5792 5792 5791 5791 5790 5790 5789 5789 5790 5791 5792 5792 5793 5794 5795 5796 5797 5798 5798
5708 5708 5708 5709 5708 5709 5710 5710 5711 5711 5712 5714 5715 5716 5717 5718 5719 5720 5721 5723 5725 5727 5728 5729 5730 5733 5736 5739 5742 5743 5743 5745 5746 5747 5749 5751 5753 5756 5758 5759 5761 5764 5765 5767 5768 5770 5772 5773 5775 5777 5778 5778 5780 5781 5781 5782 5782 5782 5782 5783 5784 5785 5786 5788 5788 5788 5789 5790 5790 5791 5790 5789 5789 5789 5788 5788 5788 5789 5790 5790 5791 5792 5793 5794 5795 5796 5797 5797
5706 5706 5706 5706 5706 5706 5707 5707 5708 5709 5710 5711 5712 5713 5714 5715 5715 5717 5719 5721 5723 5724 5725 5726 5729 5731 5733 5736 5738 5739 5740 5741 5743 5745 5748 5749 5750 5753 5755 5756 5757 5760 5762 5764 5766 5767 5769 5771 5773 5775 5776 5776 5777 5778 5779 5780 5781 5781 5781 5782 5783 5783 5785 5786 5787 5787 5788 5788 5789 5789 5788 5787 5786 5787 5786 5786 5787 5788 5789 5789 5790 5790 5791 5792 5793 5794 5795 5795
5704 5704 5704 5704 5704 5704 5704 5705 5706 5706 5707 5708 5709 5710 5711 5712 5713 5714 5717 5718 5719 5721 5723 5724 5726 5729 5731 5732 5735 5737 5738 5739 5741 5743 5746 5747 5748 5750 5752 5753 5755 5757 5759 5762 5763 5764 5766 5768 5769 5772 5773 5773 5774 5775 5777 5778 5779 5779 5780 5781 5781 5782 5783 5784 5785 5785 5786 5786 5786 5786 5786 5785 5785 5785 5785 5785 5785 5785 5787 5788 5788 5788 5789 5790 5791 5791 5792 5793
5701 5702 5702 5701 5701 5702 5702 5702 5703 5704 5705 5706 5707 5707 5708 5709 5710 5712 5714 5715 5716 5718 5721 5722 5723 5725 5727 5728 5731 5733 5735 5736 5737 5740 5743 5745 5746 5748 5750 5751 5753 5754 5757 5759 5760 5761 5764 5765 5766 5769 5770 5770 5771 5771 5773 5775 5776 5777 5778 5779 5779 5780 5781 5781 5782 5783 5783 5784 5784 5785 5784 5784 5784 5783 5783 5783 5783 5783 5784 5785 5785 5786 5787 5788 5788 5788 5789 5789
5699 5699 5699 5699 5699 5699 5699 5700 5701 5701 5702 5703 5704 5704 5705 5706 5708 5709 5710 5712 5712 5714 5717 5720 5721 5722 5724 5725 5727 5729 5731 5733 5734 5736 5738 5741 5743 5746 5747 5748 5749 5751 5754 5756 5757 5759 5761 5761 5763 5765 5766 5766 5767 5768 5770 5772 5772 5773 5775 5776 5776 5777 5778 5779 5780 5780 5781 5782 5782 5783 5783 5783 5782 5781 5781 5782 5782 5781 5781 5781 5782 5783 5783 5784 5785 5785 5785 5785
5697 5696 5696 5696 5696 5696 5697 5697 5698 5699 5699 5700 5701 5702 5702 5703 5705 5707 5707 5708 5709 5711 5713 5716 5718 5719 5720 5721 5723 5725 5728 5730 5731 5733 5734 5737 5740 5742 5743 5745 5746 5748 5750 5753 5755 5756 5758 5759 5760 5761 5761 5762 5764 5766 5767 5769 5769 5769 5771 5773 5773 5774 5775 5776 5777 5777 5778 5778 5779 5780 5781 5781 5780 5779 5779 5780 5781 5781 5780 5779 5779 5779 5780 5780 5782 5783 5783 5783